New York, NY

12:38 AM EST on December 11, 2019 (GMT -0500)
La Guardia

Weather History for KLGA - October, 2019

Change the Weather History Date:

Saturday, October 26, 2019

  Actual Average Record
Temperature  
Mean Temperature 58 °F 55 °F  
Max Temperature 63 °F 62 °F 76 °F (1963)
Min Temperature 54 °F 48 °F 34 °F (1962)
Degree Days  
Heating Degree Days 6 10  
Month to date heating degree days 125 180  
Since 1 July heating degree days 128 215  
Cooling Degree Days 0 0  
Month to date cooling degree days 29 20  
Year to date cooling degree days 1484 1210  
Growing Degree Days 8 (Base 50)    
Moisture  
Dew Point 43 °F    
Average Humidity 55    
Maximum Humidity 72    
Minimum Humidity 38    
Precipitation  
Precipitation T in 0.12 in 3.30 in (1943)
Month to date precipitation 3.64 3.21  
Year to date precipitation 40.12 37.19  
Snow  
Snow 0.00 in 0.00 in 1.20 in (1962)
Month to date snowfall 0.0 0.0  
Since 1 July snowfall 0.0 0.0  
Snow Depth 0.00 in    
Sea Level Pressure  
Sea Level Pressure 30.21 in    
Wind  
Wind Speed 7 mph ()    
Max Wind Speed 15 mph    
Max Gust Speed 22 mph    
Visibility 10.0 miles    
Events Rain    
T = Trace of Precipitation, MM = Missing Value Source: Averaged Metar Reports

Daily Weather History Graph

Daily Weather History Graph

Search for Another Location

Airport or City:

Astronomy

Oct. 26, 2019 Rise Set
Actual Time 7:18 AM EDT 5:59 PM EDT
Civil Twilight 6:50 AM EDT 6:27 PM EDT
Nautical Twilight 6:18 AM EDT 6:59 PM EDT
Astronomical Twilight 5:46 AM EDT 7:31 PM EDT
Moon 5:09 AM EDT (10/26) 5:34 PM EDT (10/26)
Length of Visible Light 11h 37m
Length of Day
10h 40m
Waning Crescent, 3% of the Moon is Illuminated
Oct 26
Waning Crescent
Oct 27
New
Nov 4
First Quarter
Nov 12
Full
Nov 19
Last Quarter

Hourly Weather History & Observations

Time (EDT) Temp. Dew Point Humidity Pressure Visibility Wind Dir Wind Speed Gust Speed Precip Events Conditions
12:51 AM 63.0 °F 51.1 °F 65% 30.16 in 10.0 mi West 10.4 mph - N/A   Overcast
1:51 AM 62.1 °F 48.0 °F 60% 30.15 in 10.0 mi West 8.1 mph - N/A   Mostly Cloudy
2:51 AM 60.1 °F 48.0 °F 64% 30.15 in 10.0 mi WNW 9.2 mph - N/A   Mostly Cloudy
3:51 AM 59.0 °F 46.9 °F 64% 30.15 in 10.0 mi NW 9.2 mph - N/A   Scattered Clouds
4:51 AM 57.0 °F 46.9 °F 69% 30.17 in 10.0 mi NNW 3.5 mph - N/A   Scattered Clouds
5:51 AM 55.9 °F 46.9 °F 72% 30.18 in 10.0 mi North 3.5 mph - N/A   Partly Cloudy
6:51 AM 55.0 °F 45.0 °F 69% 30.19 in 10.0 mi NNE 4.6 mph - N/A   Scattered Clouds
7:51 AM 55.0 °F 44.1 °F 67% 30.22 in 10.0 mi NNE 4.6 mph - N/A   Scattered Clouds
8:51 AM 57.0 °F 44.1 °F 62% 30.25 in 10.0 mi NNE 5.8 mph - N/A   Scattered Clouds
9:51 AM 57.0 °F 42.1 °F 57% 30.26 in 10.0 mi NNE 11.5 mph - N/A   Mostly Cloudy
10:51 AM 59.0 °F 42.1 °F 53% 30.26 in 10.0 mi NE 11.5 mph - N/A   Mostly Cloudy
11:51 AM 61.0 °F 39.0 °F 44% 30.26 in 10.0 mi NE 8.1 mph - N/A   Mostly Cloudy
12:51 PM 61.0 °F 39.0 °F 44% 30.23 in 10.0 mi ENE 10.4 mph - N/A   Mostly Cloudy
1:51 PM 61.0 °F 37.0 °F 41% 30.22 in 10.0 mi ENE 5.8 mph - N/A   Mostly Cloudy
2:51 PM 63.0 °F 37.9 °F 40% 30.21 in 10.0 mi NNE 4.6 mph - N/A   Mostly Cloudy
3:51 PM 63.0 °F 37.0 °F 38% 30.22 in 10.0 mi East 6.9 mph - N/A   Mostly Cloudy
4:51 PM 62.1 °F 37.9 °F 41% 30.22 in 10.0 mi NE 6.9 mph - N/A   Mostly Cloudy
5:51 PM 61.0 °F 41.0 °F 48% 30.23 in 10.0 mi South 8.1 mph - N/A   Mostly Cloudy
6:51 PM 60.1 °F 41.0 °F 49% 30.24 in 10.0 mi SSE 10.4 mph - N/A   Mostly Cloudy
7:51 PM 60.1 °F 41.0 °F 49% 30.25 in 10.0 mi South 9.2 mph - 0.00 in Rain Light Rain
9:51 PM 59.0 °F 42.1 °F 53% 30.23 in 10.0 mi SE 9.2 mph - N/A   Overcast
10:51 PM 59.0 °F 41.0 °F 51% 30.25 in 10.0 mi SE 8.1 mph - 0.00 in Rain Light Rain
11:51 PM 57.0 °F 44.1 °F 62% 30.23 in 10.0 mi East 9.2 mph - 0.00 in Rain Light Rain